Location: Chiroubles
(46.1812°N, 4.6660°E)
Time: 02:27:04
(UTC+00:00)

Explorer 7 - Pass Details

Date: 29 November 2020
Orbit: 484 x 678 km, 50.3° (Epoch: 25 January)

Event Time Altitude Azimuth Distance (km) Brightness Sun altitude
Exits shadow 06:18:13 - 293° (WNW) 1,880 8.8 -7.5°
Reaches altitude 10° 06:18:20 10° 293° (WNW) 1,834 8.8 -7.4°
Maximum altitude 06:22:30 88° 24° (NNE) 534 6.8 -6.8°
Drops below altitude 10° 06:26:25 10° 114° (ESE) 1,725 11.2 -6.2°
Sets 06:28:33 0° 114° (ESE) 2,586 13.2 -5.8°
